This demonstration page uses our WeatherBlox Daily Observations layout. Learn more.

Left ArrowRight Arrow

39.29038, -76.61219

Hourly Observations for April 10, 2021

Temp ( °F °C ) Dew Point ( °F °C ) Humidity (%) Winds ( mph kmh ) Pressure ( in mb ) Visibility ( mi km ) Precip ( " mm )
12:23 am 00:23 Cloudy with Drizzle 54 12.2 51 10.6 90 90 E 5 7 30.06 1018 3 4 0.00 0.00
12:54 am 00:54 Cloudy with Drizzle 54 12.2 52 11.1 93 93 NNE 3 6 30.05 1018 3 4 0.00 0.00
1:14 am 01:14 Cloudy with Drizzle 54 12.2 52 11.1 93 93 E 6 9 30.05 1018 3 5 0.00 0.00
1:54 am 01:54 Cloudy with Drizzle 54 12.2 52 11.1 93 93 ENE 7 11 30.04 1017 3 4 0.00 0.00
2:54 am 02:54 Cloudy with Drizzle 54 12.2 52 11.1 93 93 NE 3 6 30.04 1017 2 2 0.00 0.00
3:54 am 03:54 Cloudy with Drizzle 54 12.2 51 10.6 90 90 ENE 8 13 30.02 1017 1 2 0.01 0.25
4:54 am 04:54 Cloudy with Drizzle 54 12.2 52 11.1 93 93 NE 6 9 30.01 1016 1 2 0.00 0.00
5:32 am 05:32 Cloudy with Drizzle 53 11.7 52 11.1 96 96 NE 6 9 30.01 1016 3 4 0.00 0.00
5:54 am 05:54 Cloudy with Drizzle 54 12.2 52 11.1 93 93 ENE 9 15 30.00 1016 2 2 0.00 0.00
6:54 am 06:54 Cloudy with Drizzle 54 12.2 52 11.1 93 93 ENE 5 7 30.01 1016 1 2 0.00 0.00
7:24 am 07:24 Cloudy with Drizzle 54 12.2 52 11.1 93 93 ENE 8 13 30.01 1016 1 1 0.00 0.00
7:54 am 07:54 Cloudy with Drizzle 54 12.2 52 11.1 93 93 ENE 8 13 30.01 1016 0 0 0.00 0.00
8:54 am 08:54 Cloudy with Fog 55 12.8 53 11.7 93 93 NE 7 11 29.99 1016 0 0 0.00 0.00
9:54 am 09:54 Cloudy with Mist and Fog 55 12.8 53 11.7 93 93 E 6 9 29.99 1016 1 2 N/A
10:18 am 10:18 Cloudy with Mist and Fog 56 13.3 53 11.7 90 90 E 7 11 30.00 1016 3 5 N/A
10:54 am 10:54 Cloudy 56 13.3 53 11.7 90 90 E 6 9 30.01 1016 10 16 N/A
11:07 am 11:07 Cloudy 56 13.3 53 11.7 90 90 SE 5 7 30.01 1016 10 16 N/A
11:54 am 11:54 Cloudy 59 15 54 12.2 83 83 E 5 7 29.99 1016 10 16 N/A
12:37 pm 12:37 Cloudy 61 16.1 54 12.2 78 78 NE 3 6 29.97 1015 10 16 N/A
12:54 pm 12:54 Cloudy 61 16.1 54 12.2 78 78 N N/A 29.96 1015 10 16 N/A
1:38 pm 13:38 Cloudy 62 16.7 55 12.8 78 78 NE 3 6 29.95 1014 10 16 N/A
1:54 pm 13:54 Mostly Cloudy 64 17.8 56 13.3 75 75 ENE 3 6 29.93 1014 10 16 N/A
2:54 pm 14:54 Mostly Cloudy 67 19.4 56 13.3 68 68 N N/A 29.90 1012 10 16 N/A
3:54 pm 15:54 Cloudy 68 20 56 13.3 65 65 E 7 11 29.87 1011 10 16 N/A
4:54 pm 16:54 Cloudy 69 20.6 56 13.3 63 63 NE 5 7 29.85 1011 10 16 N/A
5:54 pm 17:54 Cloudy 67 19.4 56 13.3 68 68 E 8 13 29.82 1010 10 16 N/A
6:54 pm 18:54 Cloudy 66 18.9 55 12.8 68 68 E 7 11 29.79 1009 10 16 N/A
7:54 pm 19:54 Cloudy 63 17.2 54 12.2 73 73 E 6 9 29.77 1008 10 16 N/A
8:54 pm 20:54 Partly Cloudy 61 16.1 54 12.2 78 78 E 8 13 29.76 1008 10 16 N/A
9:54 pm 21:54 Partly Cloudy 62 16.7 55 12.8 78 78 SE 3 6 29.75 1008 10 16 N/A
10:54 pm 22:54 Cloudy 62 16.7 55 12.8 78 78 N N/A 29.74 1007 10 16 N/A
11:54 pm 23:54 Cloudy 61 16.1 55 12.8 81 81 E 6 9 29.71 1006 10 16 N/A

Powered by AerisWeather